This is the latest recevied weather packets stored in our database for station/object N3SBK. If no packets are shown the sender has not sent any weather packets the latest 10 day(s).
| Time | Temp. | Humidity | Pressure | Rain* | Wind** | Luminosity | Snow |
|---|---|---|---|---|---|---|---|
| 1777894410 | 9.44° C | 56% | 1003.2 hPa | 0 mm | - | 29 W/m² | - |
| 1777894108 | 9.44° C | 55% | 1003.2 hPa | 0 mm | - | 36 W/m² | - |
| 1777893805 | 8.89° C | 55% | 1003.2 hPa | 0 mm | - | 29 W/m² | - |
| 1777893501 | 8.89° C | 56% | 1003.1 hPa | 0 mm | - | 26 W/m² | - |
| 1777893197 | 8.89° C | 56% | 1003.3 hPa | 0 mm | - | 25 W/m² | - |
| 1777892894 | 8.89° C | 55% | 1003.4 hPa | 0 mm | - | 21 W/m² | - |
| 1777892590 | 8.89° C | 55% | 1003.3 hPa | 0 mm | - | 19 W/m² | - |
| 1777892286 | 8.89° C | 57% | 1003.1 hPa | 0 mm | - | 14 W/m² | - |
| 1777891982 | 8.89° C | 60% | 1003.2 hPa | 0 mm | - | 14 W/m² | - |
| 1777891680 | 8.89° C | 60% | 1003.2 hPa | 0 mm | - | 11 W/m² | - |
| 1777891376 | 8.89° C | 59% | 1003.4 hPa | 0 mm | - | 8 W/m² | - |
| 1777891072 | 8.89° C | 58% | 1003.2 hPa | 0 mm | - | 5 W/m² | - |
| 1777890767 | 8.89° C | 58% | 1003.2 hPa | 0 mm | - | 4 W/m² | - |
| 1777890463 | 8.89° C | 56% | 1003.1 hPa | 0 mm | - | 5 W/m² | - |
| 1777890159 | 8.33° C | 58% | 1003.2 hPa | 0 mm | - | 4 W/m² | - |
| 1777889856 | 8.33° C | 59% | 1003.3 hPa | 0 mm | - | 2 W/m² | - |
| 1777889553 | 8.33° C | 58% | 1003.3 hPa | 0 mm | - | 1 W/m² | - |
| 1777889251 | 8.33° C | 60% | 1003.7 hPa | 0 mm | - | 1 W/m² | - |
| 1777888948 | 8.33° C | 57% | 1003.5 hPa | 0 mm | - | 0 W/m² | - |
| 1777888645 | 8.33° C | 58% | 1003.6 hPa | 0 mm | - | 0 W/m² | - |
| 1777888341 | 8.33° C | 57% | 1003.6 hPa | 0 mm | - | 0 W/m² | - |
| 1777888038 | 8.33° C | 57% | 1003.6 hPa | 0 mm | - | 0 W/m² | - |
| 1777887735 | 8.33° C | 56% | 1003.7 hPa | 0 mm | - | 0 W/m² | - |
| 1777887432 | 8.33° C | 57% | 1003.6 hPa | 0 mm | - | 0 W/m² | - |
| 1777887127 | 8.33° C | 57% | 1003.7 hPa | 0 mm | - | 0 W/m² | - |
* Rain latest hour (hover to see other rain measurements)
** Current wind speed in m/s (hover to see current wind gust speed)